SQ5DCP-1 Weather Reports


time (UTC)temp
C
wind
direction
speed
KPH
gust
KPH
rain 1hr
cm
rain 24hr
cm
rain mn
cm
humidity
%
barometer
mb
20260507004520 16 170 3.2 9.7 0.00 0.00 0.00 67 1007.0
20260507004049 16 166 1.6 4.8 0.00 0.00 0.00 67 1007.1
20260507004018 16 166 1.6 4.8 0.00 0.00 0.00 67 1007.1
20260507003517 16 168 3.2 9.7 0.00 0.00 0.00 67 1007.0
20260507003035 16 175 0.0 4.8 0.00 0.00 0.00 66 1006.9
20260507002533 16 0.0 0.0 0.00 0.00 0.00 66 1007.0
20260507002031 16 0.0 0.0 0.00 0.00 0.00 66 1007.0
20260507001529 16 0.0 0.0 0.00 0.00 0.00 66 1007.0
20260507001027 16 0.0 0.0 0.00 0.00 0.00 66 1007.0
20260507000525 16 227 0.0 4.8 0.00 0.00 0.00 66 1007.0
20260507000339 16 177 3.2 9.7 0.00 0.00 0.00 67 1007.1
20260507000048 16 177 3.2 9.7 0.00 0.00 0.00 67 1007.1
20260507000023 16 177 3.2 9.7 0.00 0.00 0.00 67 1007.1
20260506235522 16 214 3.2 6.4 0.00 0.00 0.00 68 1007.2
20260506235020 16 286 4.8 14.5 0.00 0.00 0.00 68 1007.2
20260506234518 16 286 1.6 4.8 0.00 0.00 0.00 67 1007.0
20260506234018 16 196 1.6 4.8 0.00 0.00 0.00 67 1007.0
20260506233535 16 156 1.6 4.8 0.00 0.00 0.00 66 1007.1
20260506233107 16 188 3.2 6.4 0.00 0.00 0.00 65 1007.1
20260506233033 16 188 3.2 6.4 0.00 0.00 0.00 65 1007.1
20260506232532 16 198 1.6 11.3 0.00 0.00 0.00 65 1007.2
20260506232029 16 197 3.2 6.4 0.00 0.00 0.00 64 1007.2
20260506231528 16 181 3.2 6.4 0.00 0.00 0.00 64 1006.9
20260506231049 16 182 0.0 3.2 0.00 0.00 0.00 64 1007.0
20260506231026 16 182 0.0 3.2 0.00 0.00 0.00 64 1007.0
20260506230524 16 180 1.6 6.4 0.00 0.00 0.00 64 1007.0
20260506230345 16 0.0 0.0 0.00 0.00 0.00 63 1006.9
20260506230111 16 178 1.6 9.7 0.00 0.00 0.00 63 1007.0
20260506230022 16 178 1.6 9.7 0.00 0.00 0.00 63 1007.0
20260506225520 16 172 0.0 3.2 0.00 0.00 0.00 63 1007.0
20260506225019 16 0.0 0.0 0.00 0.00 0.00 63 1006.9
20260506224517 17 0.0 0.0 0.00 0.00 0.00 63 1006.9
20260506224035 17 0.0 0.0 0.00 0.00 0.00 62 1006.9
20260506223533 17 0.0 0.0 0.00 0.00 0.00 62 1006.9
20260506223032 17 0.0 0.0 0.00 0.00 0.00 62 1006.9
20260506222530 17 0.0 0.0 0.00 0.00 0.00 61 1007.0
20260506222028 17 0.0 0.0 0.00 0.00 0.00 61 1007.0
20260506221527 17 0.0 0.0 0.00 0.00 0.00 61 1006.9
20260506221025 17 0.0 0.0 0.00 0.00 0.00 61 1006.9
20260506220523 17 0.0 0.0 0.00 0.00 0.00 60 1006.9
20260506220020 17 0.0 0.0 0.00 0.00 0.00 60 1006.9
20260506215519 17 0.0 0.0 0.00 0.00 0.00 60 1006.9
20260506215017 17 0.0 0.0 0.00 0.00 0.00 60 1006.9
20260506214536 18 184 0.0 3.2 0.00 0.00 0.00 60 1007.0
20260506214033 18 0.0 0.0 0.00 0.00 0.00 59 1007.0
20260506213532 18 184 0.0 1.6 0.00 0.00 0.00 59 1007.0
20260506213030 18 161 0.0 1.6 0.00 0.00 0.00 59 1007.1
20260506212528 18 129 0.0 3.2 0.00 0.00 0.00 60 1007.1
20260506212026 18 154 1.6 9.7 0.00 0.00 0.00 60 1007.2
20260506211525 18 161 3.2 9.7 0.00 0.00 0.00 60 1007.3
20260506211023 18 170 4.8 12.9 0.00 0.00 0.00 60 1007.3
20260506210521 18 169 3.2 6.4 0.00 0.00 0.00 60 1007.3
20260506210019 18 169 3.2 9.7 0.00 0.00 0.00 61 1007.3
20260506205517 18 165 4.8 11.3 0.00 0.00 0.00 61 1007.4
20260506205036 18 167 4.8 11.3 0.00 0.00 0.00 61 1007.4
20260506204534 18 185 6.4 12.9 0.00 0.00 0.00 61 1007.5
20260506204032 18 196 8.0 20.9 0.00 0.00 0.00 62 1007.7
20260506203530 18 181 11.3 24.1 0.00 0.00 0.00 62 1007.6
20260506203028 18 190 12.9 27.4 0.00 0.00 0.00 63 1007.7
20260506202526 18 178 11.3 30.6 0.00 0.00 0.00 63 1007.6
20260506202024 19 183 11.3 33.8 0.00 0.00 0.00 62 1007.7
20260506201522 19 182 11.3 20.9 0.00 0.00 0.00 61 1007.7
20260506201020 19 173 8.0 30.6 0.00 0.00 0.00 59 1007.5
20260506200518 19 203 6.4 20.9 0.00 0.00 0.00 59 1007.5
20260506200016 19 208 6.4 12.9 0.00 0.00 0.00 59 1007.5
20260506195535 19 226 6.4 14.5 0.00 0.00 0.00 59 1007.3
20260506195033 19 237 8.0 24.1 0.00 0.00 0.00 58 1007.4
20260506194531 19 226 8.0 16.1 0.00 0.00 0.00 57 1007.4
20260506194029 19 218 9.7 22.5 0.00 0.00 0.00 56 1007.5
20260506193527 19 201 6.4 17.7 0.00 0.00 0.00 56 1007.5
20260506193048 20 221 3.2 20.9 0.00 0.00 0.00 54 1000.7
20260506193025 20 221 3.2 20.9 0.00 0.00 0.00 54 1007.2
20260506192523 20 151 0.0 1.6 0.00 0.00 0.00 54 1007.0
20260506192022 20 168 0.0 1.6 0.00 0.00 0.00 54 1007.1
20260506191520 20 0.0 0.0 0.00 0.00 0.00 54 1006.9
20260506191018 20 0.0 0.0 0.00 0.00 0.00 53 1006.9
20260506190516 20 0.0 0.0 0.00 0.00 0.00 53 1006.9
20260506190035 20 0.0 0.0 0.00 0.00 0.00 53 1006.8
20260506185533 20 0.0 0.0 0.00 0.00 0.00 53 1006.8
20260506185031 20 0.0 0.0 0.00 0.00 0.00 52 1006.9
20260506184529 21 0.0 0.0 0.00 0.00 0.00 51 1006.9
20260506184028 21 0.0 0.0 0.00 0.00 0.00 51 1006.8
20260506183525 21 0.0 0.0 0.00 0.00 0.00 50 1006.7
20260506183023 21 0.0 0.0 0.00 0.00 0.00 49 1006.6
20260506182520 21 0.0 0.0 0.00 0.00 0.00 49 1006.6
20260506182018 21 0.0 0.0 0.00 0.00 0.00 48 1006.6
20260506181516 22 0.0 0.0 0.00 0.00 0.00 47 1006.5
20260506181034 22 0.0 0.0 0.00 0.00 0.00 47 1006.5
20260506180532 22 0.0 0.0 0.00 0.00 0.00 46 1006.5
20260506180030 22 0.0 0.0 0.00 0.00 0.00 46 1006.4
20260506175528 22 0.0 0.0 0.00 0.00 0.00 46 1006.3
20260506175026 22 0.0 0.0 0.00 0.00 0.00 45 1006.4
20260506174524 23 0.0 0.0 0.00 0.00 0.00 44 1006.4
20260506174022 23 0.0 0.0 0.00 0.00 0.00 44 1006.3
20260506173520 23 0.0 0.0 0.00 0.00 0.00 43 1006.4
20260506173018 23 0.0 0.0 0.00 0.00 0.00 43 1006.3
20260506172517 23 285 1.6 3.2 0.00 0.00 0.00 42 1006.3
20260506172035 23 288 1.6 4.8 0.00 0.00 0.00 42 1006.3
20260506171534 23 284 1.6 4.8 0.00 0.00 0.00 41 1006.2
20260506171031 23 274 1.6 3.2 0.00 0.00 0.00 41 1006.2
20260506170530 24 268 3.2 9.7 0.00 0.00 0.00 41 1006.2
20260506170029 24 283 1.6 4.8 0.00 0.00 0.00 40 1006.2
20260506165526 24 276 3.2 9.7 0.00 0.00 0.00 40 1006.2
20260506165023 24 285 3.2 6.4 0.00 0.00 0.00 40 1006.2
20260506164521 24 266 3.2 6.4 0.00 0.00 0.00 40 1006.2
20260506164048 24 270 4.8 9.7 0.00 0.00 0.00 39 1006.2
20260506164019 24 270 4.8 9.7 0.00 0.00 0.00 39 1006.2
20260506163517 24 276 4.8 11.3 0.00 0.00 0.00 39 1006.1
20260506163035 24 274 4.8 12.9 0.00 0.00 0.00 40 1006.1
20260506162533 24 260 3.2 12.9 0.00 0.00 0.00 40 1006.2
20260506162032 24 278 4.8 11.3 0.00 0.00 0.00 39 1006.1
20260506161530 25 293 4.8 14.5 0.00 0.00 0.00 39 1006.1
20260506161028 25 266 4.8 12.9 0.00 0.00 0.00 39 1006.1
20260506160526 25 254 6.4 17.7 0.00 0.00 0.00 38 1006.2
20260506160024 25 255 8.0 17.7 0.00 0.00 0.00 38 1006.1
20260506155522 25 263 4.8 12.9 0.00 0.00 0.00 39 1006.2
20260506155019 25 250 8.0 17.7 0.00 0.00 0.00 38 1006.2
20260506154517 25 246 6.4 14.5 0.00 0.00 0.00 39 1006.1
20260506154035 25 271 8.0 22.5 0.00 0.00 0.00 39 1006.2
20260506153533 25 241 8.0 14.5 0.00 0.00 0.00 40 1006.2
20260506153030 25 207 6.4 20.9 0.00 0.00 0.00 39 1006.3
20260506152528 25 234 6.4 16.1 0.00 0.00 0.00 39 1006.2
20260506152026 25 227 6.4 14.5 0.00 0.00 0.00 39 1006.2
20260506151525 25 280 6.4 14.5 0.00 0.00 0.00 40 1006.2
20260506151022 25 270 6.4 17.7 0.00 0.00 0.00 40 1006.4
20260506150520 25 261 8.0 17.7 0.00 0.00 0.00 39 1006.3
20260506150018 25 251 6.4 14.5 0.00 0.00 0.00 39 1006.5
20260506145517 25 256 9.7 20.9 0.00 0.00 0.00 40 1006.4
20260506145035 25 259 4.8 14.5 0.00 0.00 0.00 40 1006.5
20260506144533 25 238 4.8 11.3 0.00 0.00 0.00 40 1006.5
20260506144031 25 240 6.4 14.5 0.00 0.00 0.00 40 1006.5
20260506143529 25 234 6.4 17.7 0.00 0.00 0.00 40 1006.5
20260506143027 25 249 8.0 22.5 0.00 0.00 0.00 40 1006.5
20260506142525 25 255 9.7 22.5 0.00 0.00 0.00 39 1006.5
20260506142024 25 213 8.0 17.7 0.00 0.00 0.00 40 1006.6
20260506141523 25 235 11.3 22.5 0.00 0.00 0.00 39 1006.5
20260506141020 25 254 8.0 16.1 0.00 0.00 0.00 40 1006.5
20260506140517 25 225 8.0 24.1 0.00 0.00 0.00 39 1006.6
20260506140049 25 258 9.7 22.5 0.00 0.00 0.00 39 1006.6
20260506140016 25 258 9.7 22.5 0.00 0.00 0.00 39 1006.6
20260506135535 25 276 9.7 17.7 0.00 0.00 0.00 38 1006.6
20260506135032 25 268 11.3 27.4 0.00 0.00 0.00 39 1006.6
20260506134531 25 237 6.4 17.7 0.00 0.00 0.00 40 1006.5
20260506134029 26 246 9.7 25.7 0.00 0.00 0.00 39 1006.6
20260506133526 25 242 11.3 29.0 0.00 0.00 0.00 40 1006.5
20260506133025 25 250 8.0 16.1 0.00 0.00 0.00 40 1006.4
20260506132523 25 271 8.0 14.5 0.00 0.00 0.00 39 1006.4
20260506132021 25 286 8.0 17.7 0.00 0.00 0.00 40 1006.5
20260506131520 25 265 8.0 22.5 0.00 0.00 0.00 40 1006.5
20260506131017 25 252 8.0 16.1 0.00 0.00 0.00 40 1006.5
20260506130516 26 279 11.3 27.4 0.00 0.00 0.00 39 1006.6
20260506130034 26 259 8.0 33.8 0.00 0.00 0.00 41 1006.4
20260506125532 25 237 8.0 17.7 0.00 0.00 0.00 40 1006.5
20260506125030 25 265 9.7 27.4 0.00 0.00 0.00 41 1006.3
20260506124528 25 270 8.0 17.7 0.00 0.00 0.00 41 1006.5
20260506124026 25 264 8.0 20.9 0.00 0.00 0.00 42 1006.5
20260506123525 25 280 8.0 27.4 0.00 0.00 0.00 41 1006.5
20260506123023 25 249 9.7 24.1 0.00 0.00 0.00 42 1006.6
20260506122521 25 245 6.4 17.7 0.00 0.00 0.00 42 1006.6
20260506122019 25 278 6.4 16.1 0.00 0.00 0.00 42 1006.7
20260506121517 25 237 9.7 22.5 0.00 0.00 0.00 42 1006.7
20260506121048 25 256 11.3 22.5 0.00 0.00 0.00 43 1006.6
20260506121016 25 256 11.3 22.5 0.00 0.00 0.00 43 1006.6
20260506120534 25 275 12.9 30.6 0.00 0.00 0.00 43 1006.6
20260506120032 25 266 12.9 24.1 0.00 0.00 0.00 43 1006.5
20260506115530 25 249 11.3 25.7 0.00 0.00 0.00 43 1006.6
20260506115029 25 261 6.4 17.7 0.00 0.00 0.00 44 1006.6
20260506114526 25 254 8.0 17.7 0.00 0.00 0.00 43 1006.6
20260506114025 25 240 11.3 24.1 0.00 0.00 0.00 43 1006.5
20260506113523 25 208 9.7 22.5 0.00 0.00 0.00 43 1006.5
20260506113021 25 266 9.7 27.4 0.00 0.00 0.00 42 1006.5
20260506112519 25 273 9.7 25.7 0.00 0.00 0.00 42 1006.5
20260506112017 25 248 8.0 20.9 0.00 0.00 0.00 42 1006.5
20260506111535 25 238 9.7 29.0 0.00 0.00 0.00 43 1006.5
20260506111033 25 192 11.3 24.1 0.00 0.00 0.00 42 1006.4
20260506110532 25 253 11.3 30.6 0.00 0.00 0.00 42 1006.4
20260506110030 25 255 12.9 27.4 0.00 0.00 0.00 41 1006.4
20260506105528 25 225 9.7 29.0 0.00 0.00 0.00 43 1006.3
20260506105026 25 260 9.7 27.4 0.00 0.00 0.00 43 1006.3
20260506104524 25 255 8.0 27.4 0.00 0.00 0.00 43 1006.3
20260506104022 25 222 6.4 22.5 0.00 0.00 0.00 43 1006.3
20260506103521 24 253 9.7 17.7 0.00 0.00 0.00 43 1006.4
20260506103019 24 263 6.4 14.5 0.00 0.00 0.00 42 1006.4
20260506102517 24 248 11.3 24.1 0.00 0.00 0.00 43 1006.3
20260506102036 24 279 9.7 22.5 0.00 0.00 0.00 42 1006.4
20260506101534 24 237 9.7 24.1 0.00 0.00 0.00 41 1006.3
20260506101032 24 210 8.0 17.7 0.00 0.00 0.00 41 1006.4
20260506100530 24 212 12.9 25.7 0.00 0.00 0.00 41 1006.4
20260506100028 25 243 11.3 25.7 0.00 0.00 0.00 41 1006.3
20260506095527 24 236 8.0 20.9 0.00 0.00 0.00 41 1006.4
20260506095024 24 252 11.3 25.7 0.00 0.00 0.00 40 1006.4
20260506094523 24 224 11.3 27.4 0.00 0.00 0.00 40 1006.3
20260506094021 24 191 9.7 25.7 0.00 0.00 0.00 40 1006.3
20260506093519 24 234 11.3 25.7 0.00 0.00 0.00 40 1006.3
20260506093017 24 191 11.3 24.1 0.00 0.00 0.00 40 1006.2
20260506092515 24 222 9.7 27.4 0.00 0.00 0.00 40 1006.4
20260506092034 24 189 11.3 24.1 0.00 0.00 0.00 40 1006.4
20260506091532 23 234 9.7 22.5 0.00 0.00 0.00 40 1006.2
20260506091030 24 214 9.7 27.4 0.00 0.00 0.00 40 1006.3
20260506090528 23 201 9.7 24.1 0.00 0.00 0.00 40 1006.2
20260506090027 23 200 11.3 24.1 0.00 0.00 0.00 41 1006.2
20260506085525 23 220 9.7 27.4 0.00 0.00 0.00 41 1006.3
20260506085023 23 253 11.3 24.1 0.00 0.00 0.00 42 1006.3
20260506084521 23 247 6.4 16.1 0.00 0.00 0.00 42 1006.2
20260506084019 23 233 9.7 22.5 0.00 0.00 0.00 42 1006.2
20260506083517 22 187 6.4 16.1 0.00 0.00 0.00 42 1006.1
20260506083035 22 181 8.0 17.7 0.00 0.00 0.00 43 1006.2
20260506082533 22 203 4.8 14.5 0.00 0.00 0.00 43 1006.1
20260506082031 22 220 6.4 17.7 0.00 0.00 0.00 43 1006.2
20260506081530 22 201 4.8 11.3 0.00 0.00 0.00 44 1006.2
20260506081028 22 236 8.0 17.7 0.00 0.00 0.00 44 1006.2
20260506080526 21 234 4.8 16.1 0.00 0.00 0.00 44 1006.1
20260506073033 20 276 6.4 14.5 0.00 0.00 0.00 46 1006.3
20260506072543 20 281 4.8 12.9 0.00 0.00 0.00 47 1006.3
20260506072029 20 230 3.2 11.3 0.00 0.00 0.00 50 1006.4
20260506071527 19 272 4.8 9.7 0.00 0.00 0.00 50 1006.3
20260506071025 19 237 4.8 12.9 0.00 0.00 0.00 51 1006.4
20260506070524 18 278 3.2 11.3 0.00 0.00 0.00 51 1006.3
20260506062027 16 215 3.2 6.4 0.00 0.00 0.00 55 1006.4
20260506061526 16 184 4.8 11.3 0.00 0.00 0.00 56 1006.5
20260506061025 16 183 4.8 12.9 0.00 0.00 0.00 56 1006.5
20260506060522 16 177 8.0 16.1 0.00 0.00 0.00 56 1006.6
20260506051022 14 160 3.2 6.4 0.00 0.00 0.00 59 1006.5
20260506050521 14 169 3.2 11.3 0.00 0.00 0.00 59 1006.6
20260506045035 13 166 1.6 6.4 0.00 0.00 0.00 60 1006.5
20260506044533 13 111 1.6 4.8 0.00 0.00 0.00 60 1006.5
20260506044033 13 140 1.6 6.4 0.00 0.00 0.00 61 1006.7
20260506043530 13 120 3.2 4.8 0.00 0.00 0.00 61 1006.6
20260506043028 13 102 3.2 4.8 0.00 0.00 0.00 62 1006.7
20260506042526 12 129 1.6 4.8 0.00 0.00 0.00 62 1006.8
20260506042024 12 152 1.6 4.8 0.00 0.00 0.00 61 1006.8
20260506041522 12 0.0 0.0 0.00 0.00 0.00 60 1006.9
20260506041020 12 0.0 0.0 0.00 0.00 0.00 60 1006.7
20260506040518 12 0.0 0.0 0.00 0.00 0.00 60 1006.7
20260506040048 12 105 1.6 3.2 0.00 0.00 0.00 60 1006.7
20260506040017 12 105 1.6 3.2 0.00 0.00 0.00 60 1006.7
20260506035535 12 109 1.6 3.2 0.00 0.00 0.00 60 1006.8
20260506035034 12 134 0.0 3.2 0.00 0.00 0.00 61 1006.7
20260506034531 12 104 1.6 3.2 0.00 0.00 0.00 60 1006.6
20260506034030 12 104 1.6 3.2 0.00 0.00 0.00 59 1006.5
20260506033528 12 103 3.2 3.2 0.00 0.00 0.00 59 1006.5
20260506033025 12 103 3.2 3.2 0.00 0.00 0.00 59 1006.6
20260506032524 12 102 1.6 3.2 0.00 0.00 0.00 59 1006.6
20260506032022 12 101 1.6 3.2 0.00 0.00 0.00 59 1006.6
20260506031520 12 105 3.2 4.8 0.00 0.00 0.00 59 1006.5
20260506031018 12 103 3.2 4.8 0.00 0.00 0.00 59 1006.6
20260506030516 12 101 3.2 4.8 0.00 0.00 0.00 59 1006.6
20260506030035 12 108 1.6 3.2 0.00 0.00 0.00 59 1006.7
20260506025533 12 110 1.6 3.2 0.00 0.00 0.00 59 1006.7
20260506025106 12 109 3.2 4.8 0.00 0.00 0.00 59 1006.6
20260506025032 12 109 3.2 4.8 0.00 0.00 0.00 59 1006.6
20260506024530 13 100 1.6 4.8 0.00 0.00 0.00 57 1006.8
20260506024028 13 0.0 0.0 0.00 0.00 0.00 57 1006.8
20260506023525 13 99 0.0 1.6 0.00 0.00 0.00 57 1006.7
20260506023024 13 120 1.6 3.2 0.00 0.00 0.00 57 1006.7
20260506022522 13 107 1.6 4.8 0.00 0.00 0.00 57 1006.6
20260506022020 13 102 3.2 4.8 0.00 0.00 0.00 57 1006.6
20260506021518 13 109 3.2 6.4 0.00 0.00 0.00 57 1006.7
20260506021016 13 101 3.2 6.4 0.00 0.00 0.00 56 1006.8
20260506020535 13 95 0.0 4.8 0.00 0.00 0.00 55 1006.9
20260506020033 13 0.0 0.0 0.00 0.00 0.00 55 1006.8
20260506015531 13 0.0 0.0 0.00 0.00 0.00 55 1006.8
20260506015030 13 0.0 0.0 0.00 0.00 0.00 56 1006.9
20260506014527 13 0.0 0.0 0.00 0.00 0.00 56 1007.0
20260506014026 13 0.0 0.0 0.00 0.00 0.00 56 1007.0
20260506013524 13 0.0 0.0 0.00 0.00 0.00 55 1007.0
20260506013034 13 0.0 0.0 0.00 0.00 0.00 55 1007.0
20260506012521 13 0.0 0.0 0.00 0.00 0.00 55 1007.1
20260506012019 13 0.0 0.0 0.00 0.00 0.00 54 1007.0
20260506011517 13 0.0 0.0 0.00 0.00 0.00 54 1007.0
20260506011035 13 0.0 0.0 0.00 0.00 0.00 54 1007.0
20260506010533 13 0.0 0.0 0.00 0.00 0.00 53 1007.0
20260506010032 13 0.0 0.0 0.00 0.00 0.00 53 1007.0
20260506005530 13 0.0 0.0 0.00 0.00 0.00 53 1006.9
20260506005028 13 0.0 0.0 0.00 0.00 0.00 53 1007.0